EI7IG-1 Weather Reports


Display with metric or nautical units.
time (UTC)temp
F
wind
direction
speed
MPH
gust
MPH
rain 1hr
in
rain 24hr
in
rain mn
in
humidity
%
barometer
mb
20190117082106 36 348 2.0 6.0 0.00 0.00 0.00 80 1020.3
20190117081106 36 341 0.0 8.0 0.00 0.00 0.00 80 1020.0
20190117080106 37 353 0.0 8.0 0.00 0.00 0.00 79 1019.9
20190117075106 37 355 0.0 6.0 0.00 0.00 0.00 79 1019.9
20190117074106 37 329 0.0 6.0 0.00 0.00 0.00 79 1020.0
20190117073106 37 352 2.0 5.0 0.00 0.00 0.00 79 1019.8
20190117072106 37 338 0.0 6.0 0.00 0.00 0.00 80 1019.6
20190117071106 36 334 0.0 5.0 0.00 0.00 0.00 80 1019.2
20190117070106 36 352 0.0 5.0 0.00 0.01 0.00 80 1019.1
20190117065106 36 355 0.0 4.0 0.00 0.01 0.00 79 1018.9
20190117064106 36 333 0.0 5.0 0.00 0.02 0.00 78 1018.8
20190117063106 36 334 1.0 6.0 0.00 0.03 0.00 78 1018.6
20190117062106 36 353 0.0 5.0 0.00 0.03 0.00 77 1018.2
20190117061106 36 326 0.0 8.0 0.00 0.04 0.00 77 1018.0
20190117060106 37 26 5.0 10.0 0.00 0.06 0.00 76 1017.6
20190117055106 37 18 7.0 9.0 0.00 0.07 0.00 77 1017.5
20190117054106 37 8 6.0 11.0 0.00 0.07 0.00 76 1017.3
20190117053106 37 343 1.0 7.0 0.00 0.09 0.00 76 1017.1
20190117052106 37 348 0.0 8.0 0.00 0.10 0.00 77 1017.0
20190117051106 37 51 0.0 7.0 0.00 0.11 0.00 79 1016.7
20190117050109 37 98 0.0 8.0 0.00 0.12 0.00 80 1016.6
20190117045106 38 56 2.0 11.0 0.00 0.12 0.00 80 1016.6
20190117044106 38 29 0.0 8.0 0.00 0.12 0.00 81 1016.3
20190117043106 38 70 0.0 10.0 0.00 0.12 0.00 82 1016.1
20190117042106 39 20 3.0 12.0 0.00 0.12 0.00 83 1016.1
20190117041106 39 30 0.0 13.0 0.00 0.12 0.00 84 1015.9
20190117040106 39 56 1.0 13.0 0.00 0.12 0.00 85 1015.7
20190117035106 39 11 2.0 14.0 0.00 0.12 0.00 86 1015.4
20190117034106 40 56 2.0 16.0 0.00 0.12 0.00 86 1015.1
20190117033106 40 18 7.0 17.0 0.00 0.12 0.00 86 1014.9
20190117032106 40 49 6.0 20.0 0.00 0.12 0.00 86 1014.7
20190117031106 41 3 1.0 19.0 0.00 0.12 0.00 86 1014.3
20190117030106 41 65 6.0 16.0 0.00 0.12 0.00 86 1013.9
20190117025106 42 6 7.0 17.0 0.00 0.12 0.00 86 1013.6
20190117024106 42 23 11.0 15.0 0.00 0.12 0.00 86 1013.2
20190117023106 43 45 3.0 14.0 0.00 0.12 0.00 86 1012.9
20190117022106 43 52 2.0 17.0 0.00 0.13 0.00 86 1012.7
20190117021106 43 350 6.0 18.0 0.00 0.13 0.00 87 1012.3
20190117020106 43 325 3.0 23.0 0.00 0.14 0.00 86 1012.1
20190117015106 43 332 0.0 18.0 0.00 0.14 0.00 86 1011.8
20190117014106 42 9 9.0 18.0 0.00 0.14 0.00 86 1011.5
20190117013106 42 316 5.0 16.0 0.00 0.14 0.00 86 1011.3
20190117012106 42 4 7.0 13.0 0.00 0.14 0.00 85 1011.1
20190117011106 43 333 3.0 15.0 0.00 0.14 0.00 83 1011.0
20190117010106 43 349 9.0 18.0 0.00 0.14 0.00 82 1010.9
20190117005106 43 5 2.0 15.0 0.00 0.14 0.00 82 1010.7
20190117004106 43 0 5.0 17.0 0.00 0.14 0.00 81 1010.5
20190117003106 43 328 5.0 14.0 0.00 0.14 0.00 82 1010.5
20190117002106 43 351 2.0 15.0 0.00 0.14 0.00 81 1010.2
20190117001106 43 355 8.0 14.0 0.00 0.14 0.00 81 1010.2
20190117000106 43 309 5.0 14.0 0.00 0.14 0.00 82 1010.1
20190116235106 42 341 1.0 12.0 0.00 0.15 0.00 82 1009.9
20190116234106 42 315 4.0 16.0 0.00 0.15 0.00 83 1009.8
20190116233106 41 327 5.0 10.0 0.00 0.15 0.00 84 1009.7
20190116232106 41 333 1.0 15.0 0.00 0.15 0.00 84 1009.5
20190116231106 41 339 0.0 9.0 0.00 0.15 0.00 84 1009.4
20190116230106 40 330 5.0 12.0 0.00 0.15 0.00 84 1009.3
20190116225106 40 8 3.0 15.0 0.00 0.15 0.00 84 1009.2
20190116224106 40 338 9.0 15.0 0.00 0.15 0.00 85 1009.2
20190116223106 40 3 15.0 15.0 0.00 0.15 0.00 85 1009.3
20190116222106 40 1 6.0 16.0 0.00 0.15 0.00 85 1009.1
20190116221106 40 354 4.0 17.0 0.00 0.15 0.00 86 1009.1
20190116220106 39 337 2.0 13.0 0.00 0.15 0.00 86 1008.9
20190116215106 40 349 3.0 14.0 0.00 0.15 0.00 85 1008.7
20190116214106 40 19 2.0 17.0 0.00 0.15 0.00 84 1008.7
20190116213106 40 326 3.0 16.0 0.00 0.15 0.00 84 1008.6
20190116212106 40 0 15.0 16.0 0.00 0.15 0.00 84 1008.6
20190116211106 40 4 1.0 15.0 0.00 0.15 0.00 85 1008.5
20190116210106 40 356 8.0 15.0 0.00 0.15 0.00 86 1008.4
20190116205106 39 326 8.0 12.0 0.00 0.15 0.00 87 1008.1
20190116204106 40 359 4.0 13.0 0.00 0.15 0.00 88 1008.0
20190116203106 40 302 1.0 7.0 0.00 0.15 0.00 89 1007.8
20190116202106 40 339 0.0 8.0 0.00 0.15 0.00 89 1007.8
20190116201106 40 318 1.0 11.0 0.00 0.15 0.00 88 1007.8
20190116200106 40 339 4.0 11.0 0.00 0.15 0.00 87 1007.6
20190116195106 40 320 2.0 11.0 0.00 0.15 0.00 87 1007.5
20190116194106 41 340 0.0 14.0 0.00 0.15 0.00 87 1007.3
20190116193106 41 353 3.0 16.0 0.00 0.15 0.00 87 1007.1
20190116192106 41 339 1.0 11.0 0.00 0.15 0.00 88 1006.8
20190116191106 41 334 0.0 10.0 0.00 0.15 0.00 88 1006.6
20190116190106 41 5 6.0 11.0 0.00 0.15 0.00 88 1006.4
20190116185106 41 348 0.0 11.0 0.00 0.15 0.00 88 1006.4
20190116184106 41 20 5.0 11.0 0.00 0.15 0.00 89 1006.4
20190116183106 41 357 3.0 13.0 0.00 0.15 0.00 89 1006.2
20190116182106 41 25 6.0 12.0 0.00 0.15 0.00 90 1005.9
20190116181106 41 336 0.0 11.0 0.00 0.15 0.00 90 1005.7
20190116180106 41 354 2.0 11.0 0.00 0.15 0.00 90 1005.4
20190116175106 42 347 4.0 12.0 0.00 0.15 0.00 89 1005.1
20190116174106 42 356 0.0 12.0 0.00 0.15 0.00 89 1004.9
20190116173106 43 5 10.0 15.0 0.00 0.15 0.00 89 1004.7
20190116172106 43 342 5.0 11.0 0.00 0.15 0.00 88 1004.5
20190116171106 43 333 5.0 9.0 0.00 0.15 0.00 89 1004.2
20190116170106 43 355 1.0 4.0 0.00 0.15 0.00 89 1004.2
20190116165106 43 1 0.0 2.0 0.00 0.15 0.00 87 1004.2
20190116164106 43 293 0.0 6.0 0.00 0.15 0.00 87 1004.2
20190116163106 43 349 0.0 4.0 0.00 0.15 0.00 87 1004.1
20190116162106 44 356 0.0 6.0 0.00 0.15 0.00 86 1003.9
20190116161106 44 293 2.0 8.0 0.00 0.15 0.00 85 1003.8
20190116160106 44 340 1.0 7.0 0.00 0.15 0.00 86 1004.0
20190116155106 44 354 4.0 8.0 0.00 0.15 0.00 86 1004.2
20190116154106 45 340 0.0 14.0 0.00 0.15 0.00 86 1004.2
20190116153106 46 349 5.0 10.0 0.00 0.14 0.00 83 1004.2
20190116152106 47 295 1.0 8.0 0.00 0.14 0.00 78 1004.2
20190116151106 47 321 0.0 5.0 0.00 0.14 0.00 79 1004.1
20190116150106 47 1 0.0 3.0 0.00 0.14 0.00 79 1004.2
20190116145106 47 280 3.0 7.0 0.00 0.14 0.00 78 1004.4
20190116144106 47 350 1.0 5.0 0.00 0.14 0.00 78 1004.7
20190116143109 48 319 0.0 7.0 0.00 0.14 0.00 75 1004.9
20190116142106 47 305 0.0 6.0 0.00 0.14 0.00 78 1005.0
20190116141106 47 293 1.0 5.0 0.00 0.14 0.00 78 1005.2
20190116140106 47 302 0.0 5.0 0.00 0.14 0.00 79 1005.3
20190116135106 46 178 0.0 4.0 0.00 0.14 0.00 81 1005.4
20190116134106 46 342 0.0 5.0 0.00 0.16 0.00 81 1005.6
20190116133106 46 231 0.0 6.0 0.00 0.16 0.00 81 1005.8
20190116132106 46 217 0.0 7.0 0.00 0.16 0.00 83 1006.0
20190116131106 46 355 0.0 5.0 0.00 0.17 0.00 84 1006.0
20190116130106 46 309 0.0 5.0 0.00 0.17 0.00 85 1006.3
20190116125106 45 321 0.0 3.0 0.00 0.17 0.00 87 1006.4
20190116124106 45 174 0.0 4.0 0.00 0.17 0.00 88 1006.6
20190116123106 45 301 0.0 5.0 0.00 0.17 0.00 88 1006.8
20190116122106 44 302 0.0 4.0 0.00 0.17 0.00 89 1006.8
20190116121106 44 171 0.0 5.0 0.00 0.17 0.00 88 1007.0
20190116120106 44 226 4.0 4.0 0.00 0.17 0.00 89 1007.0
20190116115106 44 307 0.0 6.0 0.00 0.17 0.00 89 1007.1
20190116114106 44 166 0.0 4.0 0.00 0.17 0.00 90 1007.3
20190116113106 44 276 0.0 8.0 0.00 0.17 0.00 90 1007.4
20190116112106 44 167 0.0 3.0 0.00 0.17 0.00 92 1007.5
20190116111106 43 314 0.0 4.0 0.00 0.17 0.00 92 1007.6
20190116110106 43 322 0.0 4.0 0.00 0.17 0.00 93 1007.6
20190116105106 42 293 0.0 3.0 0.00 0.17 0.00 92 1007.7
20190116104106 43 325 0.0 5.0 0.00 0.17 0.00 93 1007.6
20190116103106 42 219 0.0 2.0 0.00 0.17 0.00 94 1007.6
20190116102106 42 1 0.0 1.0 0.00 0.17 0.00 94 1007.7
20190116101109 41 10 0.0 0.0 0.00 0.17 0.00 94 1007.6
20190116100106 41 292 0.0 1.0 0.00 0.17 0.00 94 1007.7
20190116095106 41 270 0.0 0.0 0.00 0.17 0.00 94 1007.6
20190116094106 41 345 0.0 0.0 0.00 0.17 0.00 94 1007.6
20190116093106 42 298 0.0 0.0 0.00 0.17 0.00 94 1007.6
20190116092106 42 346 0.0 0.0 0.00 0.17 0.00 94 1007.6
20190116091106 42 339 0.0 1.0 0.00 0.17 0.00 94 1007.5
20190116090106 41 344 0.0 0.0 0.00 0.17 0.00 94 1007.6
20190116085106 42 330 0.0 0.0 0.00 0.17 0.00 94 1007.5
20190116084106 42 335 0.0 0.0 0.00 0.17 0.00 94 1007.5
20190116083106 42 340 0.0 0.0 0.00 0.17 0.00 94 1007.6